This demonstration page uses our WeatherBlox Daily Observations layout. Learn more.

36.17497, -115.13722

Hourly Observations for February 23, 2018

Temp ( °F °C ) Dew Point ( °F °C ) Humidity (%) Winds ( mph kmh ) Pressure ( in mb ) Visibility ( mi km ) Precip ( " mm )
12:53 am 00:53 Clear 42 5.6 11 -11.7 28 28 W 6 9 30.02 1017 10 16.0934 0 0
1:53 am 01:53 Clear 44 6.7 9 -12.8 24 24 W 17 28 30.01 1016 10 16.0934 0 0
2:53 am 02:53 Clear 41 5 10 -12.2 28 28 ESE 6 9 30.02 1017 10 16.0934 0 0
3:53 am 03:53 Clear 39 3.9 12 -11.1 33 33 E 5 7 30.02 1017 10 16.0934 0 0
4:53 am 04:53 Partly Cloudy 37 2.8 14 -10 39 39 N 6 9 30.04 1017 10 16.0934 0 0
5:53 am 05:53 Partly Cloudy 39 3.9 12 -11.1 33 33 Calm 30.04 1017 10 16.0934 0 0
6:53 am 06:53 Sunny 36 2.2 13 -10.6 39 39 N 7 11 30.07 1018 10 16.0934 0 0
7:53 am 07:53 Mostly Cloudy 42 5.6 14 -10 32 32 NE 3 6 30.09 1019 10 16.0934 0 0
8:53 am 08:53 Sunny 45 7.2 14 -10 29 29 N 9 15 30.09 1019 10 16.0934 0 0
9:48 am 09:48 Mostly Cloudy 46 8 18 -8 32 32 N 18 30 30.09 1019 10 16.0934 0 0
9:53 am 09:53 Cloudy 47 8.3 17 -8.3 30 30 NNW 18 30 30.11 1020 10 16.0934 0 0
10:53 am 10:53 Partly Cloudy 49 9.4 15 -9.4 26 26 N 18 30 30.11 1020 10 16.0934 0 0
11:53 am 11:53 Cloudy 46 7.8 24 -4.4 42 42 ENE 18 30 30.13 1020 10 16.0934 0 0
12:53 pm 12:53 Mostly Sunny 44 6.7 27 -2.8 51 51 W 13 20 30.14 1021 10 16.0934 0 0
1:53 pm 13:53 Cloudy 46 7.8 19 -7.2 34 34 W 13 20 30.11 1020 10 16.0934 0 0
2:53 pm 14:53 Mostly Cloudy 48 8.9 14 -10 25 25 N 16 26 30.12 1020 10 16.0934 0 0
3:43 pm 15:43 Partly Cloudy 46 7.8 22 -5.6 38 38 E 14 22 30.09 1019 10 16.0934 0 0
3:53 pm 15:53 Mostly Cloudy 46 7.8 23 -5 40 40 ENE 9 15 30.16 1021 10 16.0934 0 0
4:53 pm 16:53 Mostly Sunny 46 7.8 17 -8.3 31 31 N 18 30 30.19 1022 10 16.0934 0 0
5:53 pm 17:53 Clear 45 7.2 14 -10 29 29 NNW 14 22 30.2 1023 10 16.0934 0 0
6:53 pm 18:53 Clear 44 6.7 13 -10.6 28 28 N 12 19 30.23 1024 10 16.0934 0 0
7:53 pm 19:53 Clear 43 6.1 9 -12.8 25 25 N 8 13 30.25 1024 10 16.0934 0 0
8:53 pm 20:53 Clear 43 6.1 7 -13.9 22 22 NW 13 20 30.28 1026 10 16.0934 0 0
9:53 pm 21:53 Clear 42 5.6 5 -15 21 21 NNW 16 26 30.3 1026 10 16.0934 0 0
10:53 pm 22:53 Clear 41 5 6 -14.4 23 23 NNW 14 22 30.32 1027 10 16.0934 0 0
11:53 pm 23:53 Clear 38 3.3 8 -13.3 29 29 NNW 8 13 30.33 1027 10 16.0934 0 0

Powered by AerisWeather